Location: Newark
(23.3970°S, 47.6010°W)
Time: 06:24:06
(UTC+00:00)

deb Explorer IX - Pass Details

Date: 20 February 2020
Orbit: 548 x 1100 km, 38.8° (Epoch: 07 April)

Event Time Altitude Azimuth Distance (km) Brightness Sun altitude
Rises 09:17:48 0° 244° (WSW) 3,754 ? 2.9°
Reaches altitude 10° 09:20:45 10° 249° (WSW) 2,725 ? 3.6°
Maximum altitude 09:26:54 44° 319° (NW) 1,200 ? 5.0°
Drops below altitude 10° 09:32:11 10° 30° (NNE) 2,338 ? 6.2°
Sets 09:34:34 0° 37° (NE) 3,173 ? 6.7°
